TimeCAT,TemperatureF,Dew PointF,Humidity,Sea Level PressureIn,VisibilityMPH,Wind Direction,Wind SpeedMPH,Gust SpeedMPH,PrecipitationIn,Events,Conditions,WindDirDegrees,DateUTC
12:00 AM,82.4,17.6,9,29.95,-9999.0,South,9.2,-,N/A,,Clear,170,2013-10-13 22:00:00
1:00 AM,82.4,15.8,8,29.95,-9999.0,South,10.4,-,N/A,,Clear,170,2013-10-13 23:00:00
3:00 AM,77.0,12.2,9,29.95,-9999.0,SSE,8.1,-,N/A,,Clear,160,2013-10-14 01:00:00
6:00 AM,71.6,12.2,10,30.01,-9999.0,SE,10.4,-,N/A,,Clear,140,2013-10-14 04:00:00
8:00 AM,78,14,4,,6,SE,16.1,,,,Partly Cloudy,140,2013-10-14 06:00:00
8:00 AM,77.0,8.6,7,30.04,-9999.0,SE,16.1,-,N/A,,Clear,140,2013-10-14 06:00:00
9:00 AM,80.6,28.4,15,30.04,-9999.0,SE,16.1,-,N/A,,Clear,140,2013-10-14 07:00:00
10:00 AM,86.0,24.8,11,30.04,-9999.0,ESE,12.7,-,N/A,,Clear,110,2013-10-14 08:00:00
11:00 AM,91.4,35.6,14,30.01,-9999.0,ESE,12.7,-,N/A,,Clear,120,2013-10-14 09:00:00
12:00 PM,93.2,46.4,20,30.01,-9999.0,ESE,13.8,-,N/A,,Clear,120,2013-10-14 10:00:00
1:00 PM,95.0,42.8,16,29.98,-9999.0,East,11.5,-,N/A,,Clear,100,2013-10-14 11:00:00
2:00 PM,98,41,7,,6,SSE,12.7,,,,Partly Cloudy,160,2013-10-14 12:00:00
2:00 PM,98.6,41.0,14,29.95,-9999.0,SSE,12.7,-,N/A,,Clear,160,2013-10-14 12:00:00
3:00 PM,96.8,41.0,15,29.92,-9999.0,East,5.8,-,N/A,,Clear,90,2013-10-14 13:00:00
4:00 PM,98.6,41.0,14,29.92,-9999.0,ESE,10.4,-,N/A,,Clear,120,2013-10-14 14:00:00
5:00 PM,98.6,41.0,14,29.92,-9999.0,SE,9.2,-,N/A,,Clear,130,2013-10-14 15:00:00
6:00 PM,96.8,41.0,15,29.95,-9999.0,SSE,9.2,-,N/A,,Clear,150,2013-10-14 16:00:00
7:00 PM,93.2,41.0,16,29.95,-9999.0,SSE,5.8,-,N/A,,Clear,150,2013-10-14 17:00:00
8:00 PM,90,42,11,,6,SSE,10.4,,,,Partly Cloudy,150,2013-10-14 18:00:00
8:00 PM,89.6,42.8,20,29.98,-9999.0,SSE,10.4,-,N/A,,Clear,150,2013-10-14 18:00:00
9:00 PM,86.0,44.6,23,30.01,-9999.0,SSE,11.5,-,N/A,,Clear,150,2013-10-14 19:00:00
10:00 PM,86.0,51.8,31,30.04,-9999.0,SE,13.8,-,N/A,,Clear,130,2013-10-14 20:00:00
11:00 PM,82.4,51.8,35,30.06,-9999.0,ESE,13.8,-,N/A,,Clear,110,2013-10-14 21:00:00